Des Moines, IA

3:50 PM CDT on August 18, 2017 (GMT -0500)
Des Moines International

Weather History for KDSM - September, 2013

Change the Weather History Date:

Tuesday, September 10, 2013

  Actual Average Record
Temperature  
Mean Temperature 86 °F 68 °F  
Max Temperature 99 °F 79 °F 99 °F (1927)
Min Temperature 73 °F 58 °F 42 °F (1910)
Degree Days  
Heating Degree Days 0 2  
Month to date heating degree days 0 11  
Since 1 July heating degree days 0 17  
Cooling Degree Days 21 5  
Month to date cooling degree days 144 58  
Year to date cooling degree days 1245 997  
Growing Degree Days 36 (Base 50)    
Moisture  
Dew Point 62 °F    
Average Humidity 47    
Maximum Humidity 64    
Minimum Humidity 30    
Precipitation  
Precipitation 0.00 in 0.10 in 2.61 in (1972)
Month to date precipitation 0.17 1.10  
Year to date precipitation 23.71 27.82  
Snow  
Snow 0.00 in 0.00 in - ()
Month to date snowfall 0.0 0.0  
Since 1 July snowfall 0.0 0.0  
Since 1 September snowfall 0.0 0.0  
Snow Depth 0.00 in    
Sea Level Pressure  
Sea Level Pressure 29.91 in    
Wind  
Wind Speed 12 mph (SW)    
Max Wind Speed 28 mph    
Max Gust Speed 35 mph    
Visibility 10 miles    
Events      
T = Trace of Precipitation, MM = Missing Value Source: NWS Daily Summary

Daily Weather History Graph

Daily Weather History Graph

Search for Another Location

Airport or City:

Trip Planner

Search our weather history database for the weather conditions in past years. The results will help you decide how hot, cold, wet, or windy it might be!

Date:

Astronomy

Sep. 10, 2013 Rise Set
Actual Time 6:50 AM CDT 7:32 PM CDT
Civil Twilight 6:22 AM CDT 8:00 PM CDT
Nautical Twilight 5:48 AM CDT 8:33 PM CDT
Astronomical Twilight 5:14 AM CDT 9:07 PM CDT
Moon 12:20 PM CDT (9/10) 10:31 PM CDT (9/10)
Length of Visible Light 13h 37m
Length of Day
12h 41m
Waxing Crescent, 28% of the Moon is Illuminated
Sep 10
Waxing Crescent
Sep 12
First Quarter
Sep 19
Full
Sep 26
Last Quarter
Oct 4
New

Hourly Weather History & Observations

Time (CDT) Temp. Heat Index Dew Point Humidity Pressure Visibility Wind Dir Wind Speed Gust Speed Precip Events Conditions
12:54 AM 81.0 °F 81.6 °F 60.1 °F 49% 29.86 in 10.0 mi SW 11.5 mph - N/A   Clear
1:54 AM 81.0 °F 81.6 °F 60.1 °F 49% 29.86 in 10.0 mi SW 11.5 mph - N/A   Clear
2:54 AM 79.0 °F - 60.1 °F 52% 29.88 in 10.0 mi SW 10.4 mph - N/A   Clear
3:54 AM 78.1 °F - 60.1 °F 54% 29.88 in 10.0 mi SW 10.4 mph - N/A   Clear
4:54 AM 78.1 °F - 60.1 °F 54% 29.89 in 10.0 mi SW 9.2 mph - N/A   Clear
5:54 AM 75.9 °F - 61.0 °F 60% 29.90 in 10.0 mi SW 8.1 mph - N/A   Clear
6:54 AM 73.9 °F - 61.0 °F 64% 29.91 in 10.0 mi SSW 6.9 mph - N/A   Partly Cloudy
7:54 AM 75.0 °F - 61.0 °F 62% 29.93 in 10.0 mi SSW 8.1 mph - N/A   Partly Cloudy
8:54 AM 80.1 °F 81.2 °F 62.1 °F 54% 29.93 in 10.0 mi SW 11.5 mph - N/A   Partly Cloudy
9:54 AM 86.0 °F 86.3 °F 62.1 °F 44% 29.94 in 10.0 mi SW 12.7 mph - N/A   Partly Cloudy
10:54 AM 91.0 °F 91.9 °F 63.0 °F 39% 29.93 in 10.0 mi SW 12.7 mph - N/A   Partly Cloudy
11:54 AM 93.0 °F 94.2 °F 63.0 °F 37% 29.92 in 10.0 mi WSW 18.4 mph 23.0 mph N/A   Partly Cloudy
12:54 PM 96.1 °F 97.3 °F 63.0 °F 33% 29.91 in 10.0 mi SSW 17.3 mph 26.5 mph N/A   Partly Cloudy
1:54 PM 97.0 °F 97.4 °F 61.0 °F 30% 29.91 in 10.0 mi SW 20.7 mph 29.9 mph N/A   Partly Cloudy
2:54 PM 98.1 °F 99.1 °F 62.1 °F 30% 29.89 in 10.0 mi SW 19.6 mph 26.5 mph N/A   Partly Cloudy
3:54 PM 99.0 °F 100.5 °F 62.1 °F 30% 29.88 in 10.0 mi WSW 20.7 mph 28.8 mph N/A   Partly Cloudy
4:54 PM 96.1 °F 96.9 °F 62.1 °F 32% 29.88 in 10.0 mi SW 18.4 mph 27.6 mph N/A   Partly Cloudy
5:54 PM 96.1 °F 97.3 °F 63.0 °F 33% 29.88 in 10.0 mi WSW 17.3 mph - N/A   Partly Cloudy
6:54 PM 93.0 °F 94.2 °F 63.0 °F 37% 29.88 in 10.0 mi SW 11.5 mph - N/A   Partly Cloudy
7:54 PM 88.0 °F 89.3 °F 64.0 °F 45% 29.92 in 10.0 mi WNW 11.5 mph - N/A   Scattered Clouds
8:54 PM 84.9 °F 86.6 °F 64.9 °F 51% 29.96 in 10.0 mi Calm Calm - N/A   Scattered Clouds
9:54 PM 84.0 °F 85.4 °F 64.0 °F 51% 29.97 in 10.0 mi NW 6.9 mph - N/A   Partly Cloudy
10:54 PM 82.9 °F 84.6 °F 64.9 °F 54% 29.97 in 10.0 mi ENE 4.6 mph - N/A   Overcast
11:54 PM 80.1 °F 81.9 °F 64.9 °F 60% 29.97 in 10.0 mi Calm Calm - N/A   Mostly Cloudy